User: anonymous   Login
Location: Killam
(52.7910°N, 111.8608°W)
Time: 12:04:59
(UTC+00:00)
Language:

DIWATA 2B (PO-101) - Orbit

View from above orbital plane
View from above orbital plane
View from above satellite
View from above satellite

Ground track
Ground track

The orbit data is extracted from the following two-line orbital elements,

1 43678U 18084H   23342.14924759  .00001500  00000-0  14554-3 0  9992
2 43678  98.0456 129.9957 0008393 311.6948  48.3552 14.94225120278238
Epoch (UTC): 08 December 2023 03:34:54
Eccentricity: 0.0008393
inclination: 98.0456°
perigee height: 579 km
apogee height: 590 km
right ascension of ascending node: 129.9957°
argument of perigee: 311.6948°
revolutions per day: 14.94225120
mean anomaly at epoch: 48.3552°
orbit number at epoch: 27823

The dashed part of the orbit path shows where the satellite is in the earth's shadow,  

DLR